Location: Wingville
(42.9917°N, 90.4915°W)
Time: 20:33:48
(UTC+00:00)

LO-87 - Pass Details

Date: 01 July 2022
Orbit: 451 x 466 km, 97.4° (Epoch: 13 August)

Event Time Altitude Azimuth Distance (km) Brightness Sun altitude
Exits shadow 04:36:02 15° 71° (ENE) 1,326 ? -20.7°
Maximum altitude 04:36:16 15° 66° (ENE) 1,323 ? -20.8°
Drops below altitude 10° 04:38:20 10° 29° (NNE) 1,620 ? -20.9°
Sets 04:41:02 0° 6° (N) 2,507 ? -21.1°
